GW7331 Weather Reports


time (UTC)temp
F
wind
direction
speed
knots
gust
knots
rain 1hr
in
rain 24hr
in
rain mn
in
humidity
%
barometer
mb
20260504011540 66 0 0.0 3.5 0.00 0.00 0.00 58 1018.3
20260504010040 66 0 0.0 1.7 0.00 0.00 0.00 57 1018.2
20260504004540 65 0 0.0 0.9 0.00 0.00 0.00 57 1018.0
20260504003038 67 0 0.0 0.0 0.00 0.00 0.00 53 1017.9
20260504001545 71 0 0.0 0.0 0.00 0.00 0.00 47 1017.7
20260504000037 73 0 0.0 3.5 0.00 0.00 0.00 45 1017.8
20260503234558 75 18 0.0 4.3 0.00 0.00 0.00 36 1017.7
20260503233046 76 349 1.7 3.5 0.00 0.00 0.00 33 1017.7
20260503231538 76 58 2.6 6.1 0.00 0.00 0.00 34 1017.8
20260503230037 77 342 0.0 3.5 0.00 0.00 0.00 34 1017.8
20260503224536 77 332 2.6 7.0 0.00 0.00 0.00 32 1017.9
20260503223036 77 13 1.7 6.1 0.00 0.00 0.00 30 1017.7
20260503221548 78 300 0.9 7.0 0.00 0.00 0.00 31 1017.7
20260503220040 78 322 2.6 7.0 0.00 0.00 0.00 30 1017.8
20260503214538 78 309 0.9 6.1 0.00 0.00 0.00 30 1017.8
20260503213038 78 359 2.6 5.2 0.00 0.00 0.00 31 1017.9
20260503211535 77 348 1.7 9.6 0.00 0.00 0.00 29 1018.0
20260503210041 77 318 3.5 7.8 0.00 0.00 0.00 32 1018.3
20260503204542 78 347 4.3 7.8 0.00 0.00 0.00 29 1018.5
20260503203052 78 41 3.5 7.0 0.00 0.00 0.00 29 1018.7
20260503201539 77 349 1.7 9.6 0.00 0.00 0.00 31 1018.8
20260503200036 77 228 3.5 7.0 0.00 0.00 0.00 32 1018.8
20260503194541 77 8 1.7 5.2 0.00 0.00 0.00 31 1019.3
20260503193039 77 27 1.7 7.0 0.00 0.00 0.00 32 1019.5
20260503191537 77 319 3.5 7.8 0.00 0.00 0.00 30 1019.8
20260503190037 76 63 1.7 11.3 0.00 0.00 0.00 31 1020.1
20260503184537 76 40 0.9 7.0 0.00 0.00 0.00 30 1020.3
20260503183040 76 348 0.9 5.2 0.00 0.00 0.00 31 1020.6
20260503181539 75 62 4.3 8.7 0.00 0.00 0.00 34 1020.7
20260503180041 76 58 1.7 7.0 0.00 0.00 0.00 32 1020.8
20260503174536 76 338 3.5 7.8 0.00 0.00 0.00 32 1020.8
20260503173039 74 323 3.5 10.4 0.00 0.00 0.00 32 1020.9
20260503171545 75 99 1.7 7.8 0.00 0.00 0.00 32 1021.0
20260503081537 47 0 0.0 0.0 0.00 0.45 0.00 91 1019.4
20260503071553 48 0 0.0 0.9 0.00 0.63 0.00 90 1019.0
20260503054552 49 0 0.0 0.0 0.00 0.84 0.00 90 1018.8
20260503053037 49 0 0.0 0.0 0.00 0.84 0.00 90 1018.8
20260503051536 49 0 0.0 0.0 0.00 0.84 0.00 90 1018.6
20260503050041 50 0 0.0 0.0 0.00 0.84 0.00 89 1018.6
20260503044537 50 0 0.0 0.0 0.00 0.85 0.84 88 1018.6
20260503043036 51 0 0.0 0.0 0.00 0.85 0.84 89 1018.6
20260503041540 51 0 0.0 0.0 0.00 0.85 0.84 90 1018.6
20260503040042 50 6 0.0 0.0 0.00 0.85 0.84 90 1018.4
20260503034538 50 0 0.0 0.0 0.00 0.97 0.84 88 1018.5
20260503033039 51 0 0.0 0.0 0.00 0.97 0.84 87 1018.3
20260503031541 52 0 0.0 0.0 0.00 0.97 0.84 85 1018.2
20260503030045 53 0 0.0 0.0 0.00 0.97 0.84 82 1018.0
20260503024539 54 0 0.0 0.0 0.00 1.24 0.84 80 1017.9
20260503023039 54 0 0.0 0.0 0.00 1.24 0.84 79 1017.7
20260503021537 55 0 0.0 0.0 0.00 1.24 0.84 76 1017.6
20260503020038 56 0 0.0 0.0 0.00 1.24 0.84 73 1017.4
20260503014537 58 0 0.0 0.0 0.00 1.35 0.84 67 1017.2
20260503013038 59 0 0.0 0.9 0.00 1.35 0.84 64 1017.0